Back to catalog

PRISMA

AliveScienceSSO
NORAD 44072·PAYLOAD·🇮🇹 Italy

Launched Mar 22, 2019 from Guiana Space Centre

Loading…

Next Passes (next 24 hours)

TLE

FreshSource: Space-Track

Epoch: Sep 14, 2026, 15:16 UTC

1 44072U 19015A   26257.63638441  .00000782  00000-0  10116-3 0  9999
2 44072  97.8729 331.1170 0001433  84.4796 275.6582 14.83664203405311

Track PRISMA in real time with AllMySat

Download on the App Store